Stations météo

Publicité
Aerodrome Toussus-Le-Noble, France (7146): Température de l'air & dewpoint: 11.12.2018 14:00:00 - 17.12.2018 14:00:00 (CET)Aerodrome Toussus-Le-Noble, France (7146): Température de l'air 5cm: 11.12.2018 14:00:00 - 17.12.2018 14:00:00 (CET)Aerodrome Toussus-Le-Noble, France (7146): Vitesse du vent & gusts: 11.12.2018 14:00:00 - 17.12.2018 14:00:00 (CET)Aerodrome Toussus-Le-Noble, France (7146): Direction du vent: 11.12.2018 14:00:00 - 17.12.2018 14:00:00 (CET)Aerodrome Toussus-Le-Noble, France (7146): reduced air pressure: 11.12.2018 14:00:00 - 17.12.2018 14:00:00 (CET)Aerodrome Toussus-Le-Noble, France (7146): visibility: 11.12.2018 14:00:00 - 17.12.2018 14:00:00 (CET)Aerodrome Toussus-Le-Noble, France (7146): Quantités de précipitations: 11.12.2018 14:00:00 - 17.12.2018 14:00:00 (CET)
Date & Time tt [°C] td [°C] tt 5cm [°C] ff [km/h] ff [knt] fx [km/h] fx [knt] dd ppp [hPa] vv [km] rr [mm]
17.12.2018 14:00:00 6,3 5,3 7,1 15 8 23 12 SSW 1023,9 10 0,0
17.12.2018 13:00:00 6,6 5,7 6,9 13 7 26 14 SW 1023,9 14 0,0
17.12.2018 12:00:00 5,7 5,1 5,8 16 9 24 13 SW 1023,8 11 0,0
17.12.2018 11:00:00 4,9 4,3 3,4 15 8 24 13 SW 1023,4 8 0,0
17.12.2018 10:00:00 3,7 3,0 2,2 11 6 15 8 SW 1022,3 10 0,0
17.12.2018 09:00:00 3,3 2,7 2,0 10 5 16 8 WSW 1021,4 16 0,0
17.12.2018 08:00:00 3,5 2,8 2,3 10 5 19 10 WSW 1020,7 19 0,0
17.12.2018 07:00:00 3,9 3,2 3,1 14 8 22 12 WSW 1019,6 26 0,0
17.12.2018 06:00:00 4,1 3,2 3,2 10 5 27 15 WSW 1018,0 24 0,0
17.12.2018 05:00:00 4,8 4,1 4,0 18 10 27 14 WSW 1017,3 32 0,0
17.12.2018 04:00:00 4,9 4,2 4,3 17 9 26 14 WSW 1016,5 32 0,0
17.12.2018 03:00:00 5,6 4,9 5,0 16 9 27 15 WSW 1015,5 34 0,0
17.12.2018 02:00:00 6,1 5,4 5,6 17 9 26 14 SW 1014,7 20 0,0
17.12.2018 01:00:00 6,3 5,7 6,0 13 7 23 12 SW 1013,8 19 0,4
17.12.2018 00:00:00 6,4 5,8 6,1 15 8 31 17 SW 1013,5 14 1,4
16.12.2018 23:00:00 7,0 6,6 6,6 14 8 29 16 SSW 1012,7 9 2,2
16.12.2018 22:00:00 6,7 6,3 6,5 15 8 22 12 S 1012,1 16 0,0
16.12.2018 21:00:00 6,8 6,5 6,7 14 8 22 12 S 1011,9 8 0,0
16.12.2018 20:00:00 6,8 6,5 6,6 14 8 23 12 SSE 1011,9 11 0,0
16.12.2018 19:00:00 6,6 6,3 6,3 14 7 24 13 S 1011,8 5 0,0
16.12.2018 18:00:00 6,4 6,1 6,3 16 8 25 14 S 1011,7 1,8 0,0
16.12.2018 17:00:00 6,4 6,1 6,2 12 7 17 9 S 1011,3 0,5 0,0
16.12.2018 16:00:00 6,0 5,7 5,9 9 5 21 11 SSW 1011,5 0,4 0,0
16.12.2018 15:00:00 5,8 5,5 6,1 12 7 21 11 S 1011,6 0,4 0,0
16.12.2018 14:00:00 5,6 5,3 6,0 19 10 26 14 S 1011,9 1,2 0,0
16.12.2018 13:00:00 5,5 5,2 5,7 16 9 27 14 SSW 1012,3 1,1 0,0
16.12.2018 12:00:00 5,2 4,9 4,7 13 7 18 10 S 1013,0 0,5 0,0
16.12.2018 11:00:00 4,5 4,2 4,3 10 5 19 10 S 1013,6 0,4 0,0
16.12.2018 10:00:00 4,2 3,9 3,7 9 5 21 11 SW 1012,9 0,3 0,0
16.12.2018 09:00:00 3,8 3,5 2,9 8 4 15 8 WSW 1012,5 0,3 0,0
16.12.2018 08:00:00 3,2 2,9 2,3 5 3 14 8 SW 1012,4 0,2 0,0
16.12.2018 07:00:00 2,4 2,0 1,9 9 5 13 7 SSW 1012,5 0,3 0,0
16.12.2018 06:00:00 2,1 1,7 1,2 5 3 12 6 SW 1012,3 0,2 0,0
16.12.2018 05:00:00 1,5 1,1 0,6 9 5 13 7 SSW 1012,3 1,9 0,0
16.12.2018 04:00:00 2,1 1,7 1,6 8 4 22 12 SW 1011,8 0,2 0,0
16.12.2018 03:00:00 2,3 1,9 1,7 17 9 22 12 SW 1011,4 0,2 0,0
16.12.2018 02:00:00 1,8 1,4 1,3 9 5 12 6 SW 1010,9 0,2 0,0
16.12.2018 01:00:00 1,4 1,0 0,4 4 2 16 9 SSW 1010,6 0,6 0,0
16.12.2018 00:00:00 1,3 0,9 0,2 11 6 16 9 S 1010,7 7 0,2
15.12.2018 23:00:00 1,1 0,7 0,2 6 4 13 7 S 1010,8 3,5 1,6
15.12.2018 22:00:00 0,7 0,3 0,2 8 5 13 7 SE 1010,4 2,6 3,0
15.12.2018 21:00:00 0,4 -0,2 0,2 8 4 14 7 SE 1011,3 1,9 2,2
15.12.2018 20:00:00 0,2 -0,5 0,2 8 5 20 11 SE 1012,6 0,5 1,3
15.12.2018 19:00:00 0,1 -0,9 -0,1 14 8 22 12 SE 1013,4 1,2 2,2
15.12.2018 18:00:00 0,0 -1,3 0,1 15 8 26 14 SE 1014,7 3,6 1,2
15.12.2018 17:00:00 0,0 -1,6 -0,2 21 11 34 19 SE 1016,0 3,5 1,6
15.12.2018 16:00:00 0,2 -2,3 -0,3 23 13 39 21 SE 1017,2 7 0,0
15.12.2018 15:00:00 0,2 -2,3 -0,4 22 12 35 19 SE 1018,2 7 0,2
15.12.2018 14:00:00 -0,1 -3,7 -0,7 23 12 39 21 SE 1019,4 10 0,0
15.12.2018 13:00:00 0,1 -4,4 0,4 22 12 34 18 SE 1020,3 11 0,0
15.12.2018 12:00:00 -0,2 -4,5 -0,2 19 10 29 15 SSE 1021,6 11 0,0
15.12.2018 11:00:00 -0,5 -4,7 -0,6 16 9 28 15 SSE 1022,3 11 0,0
15.12.2018 10:00:00 -0,8 -5,0 -1,4 16 9 25 14 SE 1022,5 13 0,0
15.12.2018 09:00:00 -1,4 -5,1 -2,5 14 8 21 12 SE 1022,5 12 0,0
15.12.2018 08:00:00 -2,1 -5,3 -3,4 10 6 17 9 SE 1022,8 11 0,0
15.12.2018 07:00:00 -2,4 -5,4 -4,1 11 6 16 8 ESE 1023,3 9 0,0
15.12.2018 06:00:00 -3,2 -5,2 -5,8 - - 10 6 - 1023,4 8 0,0
15.12.2018 05:00:00 -4,0 -5,8 -5,9 4 2 6 4 E 1024,0 9 0,0
15.12.2018 04:00:00 -4,0 -6,8 -5,4 0 0 4 2 N 1024,4 10 0,0
15.12.2018 03:00:00 -2,7 -6,0 -4,8 6 3 7 4 SE 1024,2 13 0,0
15.12.2018 02:00:00 -1,8 -6,2 -3,4 - - 9 5 - 1024,5 15 0,0
15.12.2018 01:00:00 -1,1 -6,3 -2,3 4 2 16 9 SSE 1024,7 16 0,0
15.12.2018 00:00:00 -0,7 -6,1 -1,0 9 5 21 12 ESE 1025,0 19 0,0
14.12.2018 23:00:00 -0,6 -6,4 -0,8 9 5 14 8 SE 1025,3 19 0,0
14.12.2018 22:00:00 -0,5 -6,3 -0,7 11 6 16 9 ESE 1025,4 18 0,0
14.12.2018 21:00:00 -0,4 -5,8 -1,3 10 5 21 11 ESE 1024,5 17 0,0
14.12.2018 20:00:00 -0,7 -5,5 -3,4 8 5 16 8 E 1024,3 15 0,0
14.12.2018 19:00:00 -1,7 -6,1 -3,2 3 1 8 4 ENE 1024,5 13 0,0
14.12.2018 18:00:00 -1,5 -6,5 -2,8 7 4 12 7 N 1024,0 16 0,0
14.12.2018 17:00:00 -0,5 -5,9 -1,4 8 4 15 8 N 1023,6 17 0,0
14.12.2018 16:00:00 1,0 -6,6 0,7 7 4 15 8 NNE 1023,2 21 0,0
14.12.2018 15:00:00 1,4 -6,0 1,8 9 5 15 8 N 1022,5 20 0,0
14.12.2018 14:00:00 1,3 -6,3 2,3 9 5 21 12 NE 1022,3 20 0,0
14.12.2018 13:00:00 1,7 -5,5 4,7 16 9 30 16 E 1021,7 18 0,0
14.12.2018 12:00:00 1,0 -5,5 3,5 14 7 23 12 ENE 1021,2 16 0,0
14.12.2018 11:00:00 -0,3 -4,6 0,4 13 7 20 11 NE 1021,8 11 0,0
14.12.2018 10:00:00 -1,4 -5,3 -2,9 10 6 16 9 NNE 1021,9 12 0,0
14.12.2018 09:00:00 -2,4 -5,4 -3,9 12 6 18 10 NNE 1021,5 13 0,0
14.12.2018 08:00:00 -3,0 -5,8 -4,2 10 5 15 8 NNE 1020,6 12 0,0
14.12.2018 07:00:00 -2,6 -5,6 -3,5 11 6 19 10 N 1019,9 13 0,0
14.12.2018 06:00:00 -2,5 -5,5 -3,9 11 6 14 8 NNE 1019,4 13 0,0
14.12.2018 05:00:00 -2,6 -5,6 -4,3 9 5 16 9 NE 1019,0 13 0,0
14.12.2018 04:00:00 -1,8 -5,5 -4,0 12 6 22 12 NE 1018,7 14 0,0
14.12.2018 03:00:00 -2,8 -5,6 -4,1 11 6 19 10 NE 1018,9 14 0,0
14.12.2018 02:00:00 -2,3 -5,4 -3,4 10 6 21 12 NE 1018,5 14 0,0
14.12.2018 01:00:00 -1,2 -4,7 -2,7 9 5 21 11 ENE 1018,4 15 0,0
14.12.2018 00:00:00 -0,7 -4,8 -1,7 10 6 22 12 ENE 1017,9 17 0,0
13.12.2018 23:00:00 -0,2 -4,5 -1,3 15 8 27 15 ENE 1017,3 18 0,0
13.12.2018 22:00:00 -0,1 -4,2 -1,0 15 8 26 14 ENE 1017,0 17 0,0
13.12.2018 21:00:00 0,2 -4,1 -0,7 14 8 32 17 E 1016,7 17 0,0
13.12.2018 20:00:00 0,5 -3,8 -0,3 18 10 36 19 E 1015,9 18 0,0
13.12.2018 19:00:00 1,0 -3,5 0,1 21 11 35 19 E 1015,5 21 0,0
13.12.2018 18:00:00 1,3 -3,4 0,4 19 10 31 17 E 1015,1 23 0,0
13.12.2018 17:00:00 1,9 -3,6 1,1 22 12 34 18 E 1014,7 28 0,0
13.12.2018 16:00:00 2,8 -2,9 2,3 19 10 32 17 E 1013,9 29 0,0
13.12.2018 15:00:00 3,3 -2,9 3,0 23 13 37 20 E 1013,2 40 0,0
13.12.2018 14:00:00 3,3 -2,7 3,9 23 12 34 19 E 1013,3 18 0,0
13.12.2018 13:00:00 3,0 -2,3 5,7 21 11 32 18 E 1013,7 17 0,0
13.12.2018 12:00:00 2,0 -2,0 2,7 21 12 34 18 E 1014,3 17 0,0
13.12.2018 11:00:00 1,3 -1,8 1,5 20 11 32 17 E 1014,7 13 0,0
13.12.2018 10:00:00 0,6 -1,8 -0,2 21 11 32 17 E 1014,6 15 0,0
13.12.2018 09:00:00 0,0 -1,6 -0,3 19 10 35 19 E 1014,7 9 0,0
13.12.2018 08:00:00 0,3 -1,1 0,3 22 12 39 21 E 1014,8 8 0,0
13.12.2018 07:00:00 0,1 -1,2 0,1 23 13 36 19 E 1015,0 6 0,0
13.12.2018 06:00:00 0,0 -1,1 0,0 21 11 34 18 E 1015,9 6 0,0
13.12.2018 05:00:00 0,0 -1,1 -0,3 17 9 29 16 ESE 1016,5 5 0,0
13.12.2018 04:00:00 -0,2 -1,3 -0,3 19 11 33 18 E 1016,8 5 0,0
13.12.2018 03:00:00 -0,2 -1,3 -0,4 19 10 33 18 E 1017,7 6 0,0
13.12.2018 02:00:00 -0,3 -1,4 -0,4 19 10 35 19 E 1017,7 4,3 0,0
13.12.2018 01:00:00 -0,1 -1,2 -0,6 21 12 35 19 ESE 1018,4 4,7 0,0
13.12.2018 00:00:00 0,0 -1,3 -0,3 17 9 30 16 E 1019,1 4,9 0,0
12.12.2018 23:00:00 0,7 -0,8 0,5 22 12 37 20 ESE 1019,5 6 0,0
12.12.2018 22:00:00 1,3 -0,3 1,3 21 11 28 15 E 1020,1 7 0,0
12.12.2018 21:00:00 1,3 -0,3 0,9 17 9 32 17 E 1020,6 6 0,0
12.12.2018 20:00:00 1,5 -0,1 0,8 14 8 24 13 E 1020,3 6 0,0
12.12.2018 19:00:00 2,4 -0,2 - 16 9 24 13 E 1020,5 11 -
12.12.2018 18:00:00 2,5 -0,9 -0,1 10 5 16 9 E 1021,1 23 0,0
12.12.2018 17:00:00 3,0 -1,4 1,1 6 3 22 12 ENE 1021,6 30 0,0
12.12.2018 16:00:00 4,4 -1,0 3,7 13 7 22 12 E 1021,6 44 0,0
12.12.2018 15:00:00 4,5 -1,1 4,3 15 8 22 12 ESE 1021,9 37 0,0
12.12.2018 14:00:00 4,2 -1,2 4,9 14 7 24 13 ESE 1022,2 22 0,0
12.12.2018 13:00:00 3,8 -0,8 6,9 12 6 20 11 ESE 1022,9 20 0,0
12.12.2018 12:00:00 2,4 -1,2 4,9 13 7 19 11 ESE 1023,8 5 0,0
12.12.2018 11:00:00 1,1 -0,7 0,9 8 4 15 8 ESE 1024,4 6 0,0
12.12.2018 10:00:00 -0,2 -0,8 0,2 9 5 14 8 E 1024,6 2,7 0,0
12.12.2018 09:00:00 -0,3 -0,9 0,1 11 6 17 9 E 1024,6 2,0 0,0
12.12.2018 08:00:00 0,1 -0,5 0,2 9 5 15 8 ESE 1024,3 1,6 0,0
12.12.2018 07:00:00 0,4 -0,2 0,1 9 5 14 7 E 1023,9 3,1 0,0
12.12.2018 06:00:00 0,6 0,2 0,1 10 5 14 8 ESE 1023,8 3,0 0,0
12.12.2018 05:00:00 0,7 0,1 0,4 9 5 18 10 SE 1023,9 3,5 0,0
12.12.2018 04:00:00 1,5 0,8 1,2 14 8 19 10 ESE 1024,4 3,9 0,0
12.12.2018 03:00:00 1,9 1,0 1,4 9 5 16 9 SE 1024,5 3,2 0,0
12.12.2018 02:00:00 3,1 2,1 2,4 11 6 20 11 SE 1024,4 5 0,0
12.12.2018 01:00:00 3,6 2,7 3,1 12 6 23 12 ESE 1024,4 3,9 0,0
12.12.2018 00:00:00 4,4 3,5 4,1 16 8 25 14 SE 1024,5 6 0,0
11.12.2018 23:00:00 4,2 3,8 1,8 11 6 16 9 SSE 1024,8 3,7 0,0
11.12.2018 22:00:00 3,6 3,0 1,4 5 3 9 5 SE 1024,8 2,5 0,0
11.12.2018 21:00:00 4,3 3,4 2,7 7 4 10 6 ESE 1024,8 2,7 0,0
11.12.2018 20:00:00 5,0 3,8 3,7 6 4 12 6 ESE 1025,1 6 0,0
11.12.2018 19:00:00 6,2 4,4 6,0 9 5 12 7 ESE 1025,0 10 0,0
11.12.2018 18:00:00 6,6 4,4 6,3 8 5 11 6 SE 1024,8 13 0,0
11.12.2018 17:00:00 6,8 3,9 6,6 4 2 11 6 SE 1024,8 20 0,0
11.12.2018 16:00:00 7,4 4,2 7,5 8 5 13 7 SSE 1024,6 19 0,0
11.12.2018 15:00:00 7,6 4,4 8,1 10 6 13 7 SE 1024,8 17 0,0
11.12.2018 14:00:00 7,2 4,3 8,0 8 4 11 6 ESE 1025,4 14 0,0

tt = Température de l'air
td = dewpoint
tt 5cm = Température de l'air 5cm
ff = Vitesse du vent
fx = gusts
dd = Direction du vent
ppp = reduced air pressure
vv = visibility
rr = Quantités de précipitations

stations d'obs. à proximité